Miscellaneous Local Product
Issued by NWS Hastings, NE

Home | Current Version | Previous Version | Graphics & Text | Print | Product List | Glossary On
Versions: 1 2 3 4 5 6 7 8 9 10 11 12 13 14 15 16 17 18 19 20 21 22 23 24 25 26 27 28 29 30 31 32 33 34 35 36 37 38 39 40 41 42 43 44 45 46 47 48 49 50
000
AXUS43 KGID 271902
MISGRI

GID CWA HOURLY WEATHER ROUNDUP
NATIONAL WEATHER SERVICE HASTINGS NE
200 PM CDT MON MAR 27 2017

NOTE: "FAIR" INDICATES FEW OR NO CLOUDS BELOW 12,000 FEET WITH NO
SIGNIFICANT WEATHER AND/OR OBSTRUCTIONS TO VISIBILITY.

...SOUTH CENTRAL NEBRASKA...

CITY           SKY/WX    TMP DP  RH WIND       PRES   REMARKS
GRAND ISLAND   CLOUDY    48  42  80 CALM      29.98F
HASTINGS       CLOUDY    47  42  83 CALM      29.98F
KEARNEY        CLOUDY    50  39  66 CALM      29.97F
ORD            CLOUDY    53  40  61 VRB3      29.94F
YORK           CLOUDY    48  43  81 N7        29.98F
AURORA         CLOUDY    48  42  80 W3        29.97F
LEXINGTON      CLOUDY    49  44  84 CALM      29.96F
HOLDREGE       PTSUNNY   53  44  72 CALM      29.96F
HEBRON         CLOUDY    48  43  82 N5        29.98S

...NEBRASKA PANHANDLE...

CITY           SKY/WX    TMP DP  RH WIND       PRES   REMARKS
CHADRON        SUNNY     61  35  37 VRB5      29.82F
ALLIANCE       SUNNY     63  27  25 SW13      29.84F
SCOTTSBLUFF    CLOUDY    63  26  24 W12G22    29.84F
SIDNEY         MOSUNNY   62  35  36 S18       29.88F

...WESTERN AND NORTH CENTRAL NEBRASKA...

CITY           SKY/WX    TMP DP  RH WIND       PRES   REMARKS
VALENTINE      SUNNY     57  40  52 S14       29.90F
AINSWORTH      SUNNY     54  43  67 S6        29.92F
ONEILL         SUNNY     54  37  52 SE6       29.95F
BROKEN BOW     CLOUDY    51  43  74 CALM      29.95F
IMPERIAL       SUNNY     61  38  42 VRB3      29.91F
NORTH PLATTE   SUNNY     61  42  49 SE6       29.91F
MCCOOK         SUNNY     61  41  47 S6        29.91F

...EASTERN NEBRASKA...

CITY           SKY/WX    TMP DP  RH WIND       PRES   REMARKS
NORFOLK        SUNNY     53  36  52 N6        29.95F
SO SIOUX CITY  CLOUDY    53  40  61 CALM      29.98S
TEKAMAH        CLOUDY    51  41  68 N6        29.99F
COLUMBUS       PTSUNNY   52  37  58 NW6       29.98F
ALBION         SUNNY     53  38  58 S6        29.96F
OMAHA EPPLEY   CLOUDY    50  39  66 N7        29.98F
OFFUTT AFB     CLOUDY    49  40  71 NE6       29.98S
MILLARD        CLOUDY    51  42  71 NE5       29.98S
LINCOLN        CLOUDY    51  41  68 N9        29.99F
NEBRASKA CITY  CLOUDY    51  40  66 N9        29.97S
BEATRICE       CLOUDY    51  45  80 N10       29.97F
FALLS CITY     NOT AVBL

...NORTHERN KANSAS...

CITY           SKY/WX    TMP DP  RH WIND       PRES   REMARKS
GOODLAND       SUNNY     61  40  45 S9        29.91F
HILL CITY      MOSUNNY   54  46  74 E7        29.96F
NORTON         CLOUDY    48  43  81 E7        29.95
PHILLIPSBURG   PTSUNNY   57  43  58 CALM      29.96F
HAYS             N/A     57  44  62 E3        29.96F
RUSSELL        MOSUNNY   59  42  53 E8        29.94F
CONCORDIA      CLOUDY    49  46  90 N8        29.98R
SALINA         CLOUDY    53  46  77 NW7       29.98S
TOPEKA         CLOUDY    52  48  86 N9        29.95S



USA.gov is the U.S. government's official web portal to all federal, state and local government web resources and services.